User: anonymous   Login
Location: Newark
(40.9833°N, 0.0333°W)
Time: 03:32:18
(UTC+00:00)
Language:

AO-73 - Orbit

View from above orbital plane
View from above orbital plane
View from above satellite
View from above satellite

Ground track
Ground track

The orbit data is extracted from the following two-line orbital elements,

1 39444U 13066AE  19324.25726838  .00000257  00000-0  37970-4 0  9994
2 39444  97.5584 331.1553 0056740 239.6533 119.9063 14.82012427322825
Epoch (UTC): 20 November 2019 06:10:27
Eccentricity: 0.0056740
inclination: 97.5584°
perigee height: 583 km
apogee height: 663 km
right ascension of ascending node: 331.1553°
argument of perigee: 239.6533°
revolutions per day: 14.82012427
mean anomaly at epoch: 119.9063°
orbit number at epoch: 32282

The dashed part of the orbit path shows where the satellite is in the earth's shadow,  

DLR